Showing default

GALAXY 23 (TELSTAR 13), 27854

Orbit data source: Space-Track

GALAXY 23 (TELSTAR 13), 27854 is a payload satellite owned by Echostar (US) in GEO that was launched on Fri, 08 Aug 2003 UTC via a ZENIT-3SL launch vehicle from the Sea Launch (SEAL). Payload-class satellites include a variety of spacecraft equipped with specific instruments for various scientific and technological missions. These include communications satellites like Starlink; space stations such as the ISS; scientific satellites like the Hubble; Earth observation satellites from companies like Planet Labs, Umbra, and HawkEye 360; GPS; miniature CubeSats for education and research; and military/defense satellites.

Loading next visibility...
Identifier
27854, 2003-034A
Orbit
GEO
Country
Flag of USUS
Related business
Manufacturer
SS/Loral
Mission
Non-operational Commercial Communications
Bus & Motor
SSL-1300, R-4D-11-164
Mass
4,737 kg wet, ~2,000 kg dry
Launch date (UTC)
2003-08-08 (22 years ago)
Launch vehicle
ZENIT-3SL
Launch site
Sea Launch (SEAL)
Object type
Payload
Rocket body
Debris
Shape & HBR
Box + 2 Pan, 1.4 m
Radar Cross Section
40.765 m², Large (>1 m²)

Expand to show TLE details & history
Last TLE update: 18 hours ago

TLE from 18 hours ago
0 GALAXY 23 (TELSTAR 13)
1 27854U 03034A   25260.55260432 -.00000027  00000-0  00000-0 0  9998
2 27854   2.4871  82.9709 0006732 139.2608 180.8629  0.98955072 80997
Epoch: 2025-09-17T13:15Z
TLE epoch observation values (Epoch: 2025-09-17T13:15:45.013Z)
Latitude
-1.61621°
Longitude
-152.54715°
Altitude
36,188.12 km
Speed
3.059 km/s
True Right ascension
02h 52m 28s
True Declination
-1° 36' 53"
Sunlit
Object was in daylight at epoch
Visualization orbit readout
Latitude
Unknown
Longitude
Unknown
Altitude
Unknown
Speed
Unknown
Apparent Right ascension
Unknown
Apparent Declination
Unknown
Sunlit
N/A
Visualization observer readout
Local Sidereal Time
00:24:19
Azimuth
Unknown
Elevation
Unknown
Doppler factor
Unknown
Orbital elements
Apogee altitude
36,189.5 km
Perigee altitude
36,132.226 km
Semi-major axis
42,539 km
Eccentricity
0.00067
Inclination
2.4871°
RAAN
82.9709°
Arg. of periapsis
139.2608°
True anomaly
180.86174°
Mean anomaly
180.8629°
Eccentric anomaly
180.86232°
Mean motion
0.24738 °/min
Orbital period
1,455.26 mins
BSTAR
0
Loading maneuver chart data...
Computing Atmospheric mass density...
Loading historical data...
Loading historical data...
Loading historical data...
Loading historical data...
Loading historical data...
Loading historical data...
Loading historical data...
Other satellites on launch #34 in the year 2003 (2003-08-08 UTC)

Documentation

Showing up to 5 results
|